Find Shiyan 20B

NORAD ID: 54700 Int'l Des: 2022-169 Owner: SAST Country: CN operational
LEOCIRCULAR

現在のビュー

3D地球を読み込み中...

Shiyan 20Bについて

説明を読み込み中...

次回通過

Passes for default location (London). Set your location on the main map for personalized predictions.

高度履歴

Loading altitude history...

軌道要素

1 54700U 22169B 26150.19283236 .00000083 00000-0 85416-4 0 9993
2 54700 59.9976 299.9815 0012823 186.9775 173.1084 14.29534964180780
Epoch: May 30, 2026 • Age: 6 hours

現在のステータス

高度 814.5 km
速度 7.45 km/s
衛星直下点 -59.84°S, 165.81°E
打ち上げ日 Dec 12, 2022
運用期間 3.4 years
タイプ other

技術仕様

分類 Payload
質量 500.00 kg
乾燥質量 500.00 kg
総質量 500.00 kg
長さ 2.50 m
直径 2.50 m
スパン 5.00 m
形状 Box + 2 Pan
製造者 SAST
フェーズステータス In Orbit
所有者/国 SAST/CN

Most Searched